User: anonymous   Login
Location: Caltech
(34.1382°N, 118.1253°W)
Time: 23:27:05
(UTC-07:00)
Language:

Cosmos 1939 Rocket - Orbit

View from above orbital plane
View from above orbital plane
View from above satellite
View from above satellite

Ground track
Ground track

The orbit data is extracted from the following two-line orbital elements,

1 19046U 88032B   18169.52319019 +.00000740 +00000-0 +59460-4 0  9995
2 19046 097.4811 209.7729 0038452 167.6636 192.5540 15.02444425627355
Epoch (UTC): 18 June 2018 12:33:23
Eccentricity: 0.0038452
inclination: 97.4811°
perigee height: 532 km
apogee height: 586 km
right ascension of ascending node: 209.7729°
argument of perigee: 167.6636°
revolutions per day: 15.02444425
mean anomaly at epoch: 192.5540°
orbit number at epoch: 62735

The dashed part of the orbit path shows where the satellite is in the earth's shadow,  

DLR